Location: Unspecified
(49.2170°N, 0.0000°E)
Time: 15:19:38
(UTC+00:00)

Tiros 1 despin weight - Pass Details

Date: 25 January 2021
Orbit: 593 x 642 km, 48.2° (Epoch: 07 March)

Event Time Altitude Azimuth Distance (km) Brightness Sun altitude
Rises 18:51:35 0° 282° (WNW) 2,859 ? -20.4°
Reaches altitude 10° 18:54:00 10° 274° (W) 1,946 ? -20.8°
Maximum altitude 18:58:08 38° 207° (SSW) 912 ? -21.5°
Enters shadow 18:59:51 27° 161° (SSE) 1,152 ? -21.7°
Drops below altitude 10° 19:02:14 10° 139° (SE) 1,922 - -22.1°
Sets 19:04:36 0° 131° (SE) 2,818 - -22.5°
